User: anonymous   Login
Location: Allentsteig
(48.6833°N, 15.3167°E)
Time: 14:21:44
(UTC+00:00)
Language:

Meteor 1-12 Rocket - Orbit

View from above orbital plane
View from above orbital plane
View from above satellite
View from above satellite

Ground track
Ground track

The orbit data is extracted from the following two-line orbital elements,

1  6080U 72049B   20340.09999432  .00000070  00000-0  38611-4 0  9990
2  6080  81.2403 211.2371 0048223 297.5470  62.0800 14.00922248474591
Epoch (UTC): 05 December 2020 02:23:59
Eccentricity: 0.0048223
inclination: 81.2403°
perigee height: 855 km
apogee height: 925 km
right ascension of ascending node: 211.2371°
argument of perigee: 297.5470°
revolutions per day: 14.00922248
mean anomaly at epoch: 62.0800°
orbit number at epoch: 47459

The dashed part of the orbit path shows where the satellite is in the earth's shadow,  

DLR